Time,TemperatureF,DewpointF,PressureIn,WindDirection,WindDirectionDegrees,WindSpeedMPH,WindSpeedGustMPH,Humidity,HourlyPrecipIn,Conditions,Clouds,dailyrainin,SoftwareType,DateUTC
2013-01-06 14:12:00,55.0,20.0,30.04,SE,140,7.0,-999.0,25,-99.99,,,-99.99,,2013-01-06 21:12:00,
2013-01-06 14:22:00,56.0,20.0,30.03,ESE,116,6.0,-999.0,24,-99.99,,,-99.99,,2013-01-06 21:22:00,
2013-01-06 14:42:00,56.0,20.0,30.03,ESE,117,8.0,-999.0,24,-99.99,,,-99.99,,2013-01-06 21:42:00,
2013-01-06 14:52:00,56.0,20.0,30.03,ESE,117,8.0,-999.0,24,-99.99,,,-99.99,,2013-01-06 21:52:00,
2013-01-06 15:02:00,56.0,22.0,30.02,ESE,121,6.0,-999.0,26,-99.99,,,-99.99,,2013-01-06 22:02:00,
2013-01-06 15:12:00,56.0,22.0,30.02,ESE,121,6.0,-999.0,26,-99.99,,,-99.99,,2013-01-06 22:12:00,
2013-01-06 15:22:00,55.0,21.0,30.01,SSE,152,5.0,-999.0,26,-99.99,,,-99.99,,2013-01-06 22:22:00,
2013-01-06 15:32:00,54.0,21.0,30.02,SE,143,6.0,-999.0,27,-99.99,,,-99.99,,2013-01-06 22:32:00,
2013-01-06 15:43:00,54.0,21.0,30.02,SE,143,6.0,-999.0,27,-99.99,,,-99.99,,2013-01-06 22:43:00,
2013-01-06 15:52:00,53.0,21.0,30.01,SE,140,7.0,-999.0,28,-99.99,,,-99.99,,2013-01-06 22:52:00,
2013-01-06 16:02:00,53.0,21.0,30.01,SE,136,6.0,-999.0,28,-99.99,,,-99.99,,2013-01-06 23:02:00,
2013-01-06 16:12:00,53.0,21.0,30.01,SE,136,6.0,-999.0,28,-99.99,,,-99.99,,2013-01-06 23:12:00,
2013-01-06 16:22:00,52.0,20.0,30.01,SSE,155,6.0,-999.0,28,-99.99,,,-99.99,,2013-01-06 23:22:00,
2013-01-06 16:32:00,52.0,21.0,30.01,SE,141,6.0,-999.0,29,-99.99,,,-99.99,,2013-01-06 23:32:00,
2013-01-06 16:42:00,52.0,21.0,30.01,SE,141,6.0,-999.0,29,-99.99,,,-99.99,,2013-01-06 23:42:00,
2013-01-06 16:52:00,52.0,22.0,30.00,SSE,167,5.0,-999.0,30,-99.99,,,-99.99,,2013-01-06 23:52:00,
2013-01-06 17:02:00,51.0,21.0,29.99,SSW,193,7.0,-999.0,31,-99.99,,,-99.99,,2013-01-07 00:02:00,
2013-01-06 17:12:00,51.0,21.0,29.99,SSW,193,7.0,-999.0,31,-99.99,,,-99.99,,2013-01-07 00:12:00,
2013-01-06 17:22:00,50.0,21.0,29.98,SSE,163,7.0,-999.0,32,-99.99,,,-99.99,,2013-01-07 00:22:00,
2013-01-06 17:32:00,49.0,22.0,29.98,SE,145,9.0,-999.0,34,-99.99,,,-99.99,,2013-01-07 00:32:00,
2013-01-06 17:42:00,49.0,22.0,29.98,SE,145,9.0,-999.0,34,-99.99,,,-99.99,,2013-01-07 00:42:00,
2013-01-06 17:52:00,48.0,22.0,29.98,SE,142,5.0,-999.0,36,-99.99,,,-99.99,,2013-01-07 00:52:00,
2013-01-06 18:02:00,48.0,23.0,29.98,SE,143,4.0,-999.0,37,-99.99,,,-99.99,,2013-01-07 01:02:00,
2013-01-06 18:12:00,48.0,23.0,29.98,SE,143,4.0,-999.0,37,-99.99,,,-99.99,,2013-01-07 01:12:00,
2013-01-06 18:22:00,47.0,23.0,29.98,SSE,150,5.0,-999.0,38,-99.99,,,-99.99,,2013-01-07 01:22:00,
2013-01-06 18:32:00,47.0,23.0,29.98,SE,127,3.0,-999.0,39,-99.99,,,-99.99,,2013-01-07 01:32:00,
2013-01-06 18:42:00,47.0,23.0,29.98,SE,127,3.0,-999.0,39,-99.99,,,-99.99,,2013-01-07 01:42:00,
2013-01-06 18:52:00,46.0,23.0,29.97,SE,134,5.0,-999.0,40,-99.99,,,-99.99,,2013-01-07 01:52:00,
2013-01-06 19:02:00,45.0,23.0,29.97,SE,136,4.0,-999.0,41,-99.99,,,-99.99,,2013-01-07 02:02:00,
2013-01-06 19:12:00,45.0,23.0,29.97,SE,136,4.0,-999.0,41,-99.99,,,-99.99,,2013-01-07 02:12:00,
2013-01-06 19:22:00,46.0,22.0,29.96,SSE,149,6.0,-999.0,39,-99.99,,,-99.99,,2013-01-07 02:22:00,
2013-01-06 19:32:00,46.0,24.0,29.96,SSE,163,2.0,-999.0,41,-99.99,,,-99.99,,2013-01-07 02:32:00,
2013-01-06 19:42:00,46.0,24.0,29.96,SSE,163,2.0,-999.0,41,-99.99,,,-99.99,,2013-01-07 02:42:00,
2013-01-06 19:52:00,46.0,24.0,29.96,ESE,118,3.0,-999.0,41,-99.99,,,-99.99,,2013-01-07 02:52:00,
2013-01-06 20:02:00,46.0,24.0,29.95,SSE,151,5.0,-999.0,42,-99.99,,,-99.99,,2013-01-07 03:02:00,
2013-01-06 20:12:00,46.0,24.0,29.95,SSE,151,5.0,-999.0,42,-99.99,,,-99.99,,2013-01-07 03:12:00,
2013-01-06 20:22:00,45.0,23.0,29.96,SSE,159,4.0,-999.0,42,-99.99,,,-99.99,,2013-01-07 03:22:00,
2013-01-06 20:32:00,45.0,24.0,29.96,SSE,159,2.0,-999.0,43,-99.99,,,-99.99,,2013-01-07 03:32:00,
2013-01-06 20:42:00,45.0,24.0,29.96,SSE,159,2.0,-999.0,43,-99.99,,,-99.99,,2013-01-07 03:42:00,
2013-01-06 20:52:00,44.0,23.0,29.96,SSE,163,2.0,-999.0,44,-99.99,,,-99.99,,2013-01-07 03:52:00,
2013-01-06 21:02:00,44.0,24.0,29.96,SSE,161,2.0,-999.0,45,-99.99,,,-99.99,,2013-01-07 04:02:00,
2013-01-06 21:12:00,44.0,24.0,29.96,SSE,161,2.0,-999.0,45,-99.99,,,-99.99,,2013-01-07 04:12:00,
2013-01-06 21:22:00,43.0,24.0,29.94,SSE,153,3.0,-999.0,46,-99.99,,,-99.99,,2013-01-07 04:22:00,
2013-01-06 21:32:00,43.0,23.0,29.93,ESE,111,3.0,-999.0,45,-99.99,,,-99.99,,2013-01-07 04:32:00,
2013-01-06 21:42:00,43.0,23.0,29.93,ESE,111,3.0,-999.0,45,-99.99,,,-99.99,,2013-01-07 04:42:00,
2013-01-06 21:52:00,43.0,23.0,29.93,ESE,119,1.0,-999.0,45,-99.99,,,-99.99,,2013-01-07 04:52:00,
2013-01-06 22:02:00,42.0,23.0,29.93,ESE,121,1.0,-999.0,47,-99.99,,,-99.99,,2013-01-07 05:02:00,
2013-01-06 22:12:00,42.0,23.0,29.93,ESE,121,1.0,-999.0,47,-99.99,,,-99.99,,2013-01-07 05:12:00,
2013-01-06 22:22:00,41.0,23.0,29.92,ESE,121,0.0,-999.0,49,-99.99,,,-99.99,,2013-01-07 05:22:00,
2013-01-06 22:32:00,41.0,23.0,29.92,ESE,121,0.0,-999.0,49,-99.99,,,-99.99,,2013-01-07 05:32:00,
2013-01-06 22:42:00,41.0,23.0,29.92,ESE,121,0.0,-999.0,49,-99.99,,,-99.99,,2013-01-07 05:42:00,
2013-01-06 22:52:00,41.0,24.0,29.90,ESE,120,1.0,-999.0,51,-99.99,,,-99.99,,2013-01-07 05:52:00,
2013-01-06 23:02:00,39.0,23.0,29.91,SSW,205,1.0,-999.0,52,-99.99,,,-99.99,,2013-01-07 06:02:00,
2013-01-06 23:12:00,39.0,23.0,29.91,SSW,205,1.0,-999.0,52,-99.99,,,-99.99,,2013-01-07 06:12:00,
2013-01-06 23:22:00,38.0,23.0,29.91,SSW,205,2.0,-999.0,55,-99.99,,,-99.99,,2013-01-07 06:22:00,
2013-01-06 23:32:00,37.0,23.0,29.91,SSW,207,1.0,-999.0,57,-99.99,,,-99.99,,2013-01-07 06:32:00,
2013-01-06 23:42:00,37.0,23.0,29.91,SSW,207,1.0,-999.0,57,-99.99,,,-99.99,,2013-01-07 06:42:00,
2013-01-06 23:52:00,36.0,23.0,29.90,SSW,207,1.0,-999.0,59,-99.99,,,-99.99,,2013-01-07 06:52:00,